Location: Ahstedt
(52.2048°N, 10.1060°E)
Time: 00:08:23
(UTC+00:00)

Cosmos 1869 Rocket - Pass Details

Date: 18 January 2026
Orbit: 597 x 626 km, 82.5° (Epoch: 18 February)

Event Time Altitude Azimuth Distance (km) Brightness Sun altitude
Rises 06:25:47 0° 179° (S) 2,901 7.3 -8.0°
Reaches altitude 10° 06:28:01 10° 176° (S) 1,999 6.6 -7.7°
Maximum altitude 06:32:24 62° 97° (E) 709 4.2 -7.0°
Drops below altitude 10° 06:36:48 10° 17° (NNE) 2,011 6.1 -6.4°
Sets 06:39:03 0° 14° (NNE) 2,920 6.9 -6.1°
